• en France
  • Liste des pays
  • À 7 jours
  • Température de l'eau
  • Carte satellitaire
  • Carte météo
  • Widgets météo
  • user-avatar
    Se connecter

    Météo par heure à Balahani

    Ce jour, 18 Octobre, Jeudi

    Heure Température Précipitation Vent Pression Humidité
    00:00 +12°C° 0 mm 1 m/s 689 mmHg 73%
    01:00 +12°C° 0 mm 1 m/s 688 mmHg 71%
    02:00 +12°C° 0 mm 1 m/s 688 mmHg 68%
    03:00 +12°C° 0 mm 1 m/s 688 mmHg 66%
    04:00 +11°C° 0 mm 1 m/s 688 mmHg 62%
    05:00 +11°C° 0 mm 1 m/s 688 mmHg 59%
    06:00 +11°C° 0 mm 1 m/s 688 mmHg 55%
    07:00 +13°C° 0 mm 1 m/s 688 mmHg 50%
    08:00 +15°C° 0 mm 1 m/s 689 mmHg 45%
    09:00 +18°C° 0 mm 1 m/s 689 mmHg 39%
    10:00 +19°C° 0 mm 1 m/s 689 mmHg 39%
    11:00 +19°C° 0 mm 2 m/s 689 mmHg 38%
    12:00 +20°C° 0 mm 2 m/s 689 mmHg 38%
    13:00 +20°C° 0 mm 2 m/s 689 mmHg 42%
    14:00 +19°C° 0 mm 2 m/s 689 mmHg 45%
    15:00 +19°C° 0 mm 2 m/s 689 mmHg 49%
    16:00 +17°C° 0 mm 2 m/s 688 mmHg 60%
    17:00 +16°C° 0 mm 1 m/s 688 mmHg 71%
    18:00 +14°C° 0 mm 1 m/s 688 mmHg 81%
    19:00 +14°C° 0 mm 1 m/s 688 mmHg 79%
    20:00 +13°C° 0 mm 1 m/s 688 mmHg 76%
    21:00 +13°C° 0 mm 1 m/s 688 mmHg 74%
    22:00 +13°C° 0 mm 1 m/s 688 mmHg 69%
    23:00 +13°C° 0 mm 2 m/s 688 mmHg 65%

    Demain, 19 Octobre, Vendredi

    Heure Température Précipitation Vent Pression Humidité
    00:00 +12°C° 0 mm 2 m/s 688 mmHg 61%
    01:00 +12°C° 0 mm 2 m/s 688 mmHg 59%
    02:00 +12°C° 0 mm 2 m/s 687 mmHg 56%
    03:00 +12°C° 0 mm 2 m/s 687 mmHg 53%
    04:00 +12°C° 0 mm 2 m/s 687 mmHg 51%
    05:00 +12°C° 0 mm 2 m/s 687 mmHg 50%
    06:00 +10°C° 0 mm 2 m/s 687 mmHg 48%
    07:00 +14°C° 0 mm 2 m/s 688 mmHg 42%
    08:00 +16°C° 0 mm 2 m/s 688 mmHg 37%
    09:00 +18°C° 0 mm 2 m/s 689 mmHg 32%
    10:00 +19°C° 0 mm 2 m/s 689 mmHg 31%
    11:00 +20°C° 0 mm 2 m/s 689 mmHg 30%
    12:00 +21°C° 0 mm 3 m/s 688 mmHg 29%
    13:00 +21°C° 0 mm 3 m/s 688 mmHg 33%
    14:00 +21°C° 0 mm 3 m/s 688 mmHg 37%
    15:00 +21°C° 0 mm 3 m/s 688 mmHg 41%
    16:00 +19°C° 0 mm 2 m/s 687 mmHg 52%
    17:00 +16°C° 0 mm 2 m/s 687 mmHg 62%
    18:00 +14°C° 0 mm 2 m/s 687 mmHg 73%
    19:00 +14°C° 0 mm 2 m/s 687 mmHg 71%
    20:00 +14°C° 0 mm 2 m/s 687 mmHg 69%
    21:00 +14°C° 0 mm 2 m/s 687 mmHg 67%
    22:00 +14°C° 0 mm 2 m/s 686 mmHg 66%
    23:00 +13°C° 0 mm 2 m/s 686 mmHg 65%

    Après-demain, 20 Octobre, Samedi

    Heure Température Précipitation Vent Pression Humidité
    00:00 +13°C° 0 mm 2 m/s 686 mmHg 64%
    01:00 +13°C° 0 mm 2 m/s 686 mmHg 63%
    02:00 +13°C° 0 mm 2 m/s 685 mmHg 62%
    03:00 +13°C° 0 mm 2 m/s 685 mmHg 62%
    04:00 +12°C° 0 mm 2 m/s 685 mmHg 59%
    05:00 +12°C° 0 mm 2 m/s 685 mmHg 57%
    06:00 +12°C° 0 mm 2 m/s 685 mmHg 55%
    07:00 +14°C° 0 mm 2 m/s 685 mmHg 47%
    08:00 +18°C° 0 mm 1 m/s 686 mmHg 40%
    09:00 +20°C° 0 mm 1 m/s 686 mmHg 32%
    10:00 +21°C° 0 mm 1 m/s 686 mmHg 31%
    11:00 +21°C° 0 mm 2 m/s 686 mmHg 30%
    12:00 +23°C° 0 mm 2 m/s 686 mmHg 29%
    13:00 +23°C° 0 mm 2 m/s 686 mmHg 32%
    14:00 +21°C° 0 mm 2 m/s 685 mmHg 35%
    15:00 +21°C° 0 mm 2 m/s 685 mmHg 38%
    16:00 +19°C° 0 mm 2 m/s 685 mmHg 46%
    17:00 +18°C° 0 mm 1 m/s 685 mmHg 54%
    18:00 +15°C° 0 mm 1 m/s 684 mmHg 62%
    19:00 +15°C° 0 mm 1 m/s 684 mmHg 59%
    20:00 +15°C° 0 mm 1 m/s 684 mmHg 56%
    21:00 +15°C° 0 mm 1 m/s 684 mmHg 53%
    22:00 +14°C° 0 mm 1 m/s 684 mmHg 51%
    23:00 +14°C° 0 mm 1 m/s 684 mmHg 49%

    21 Octobre, Dimanche

    Heure Température Précipitation Vent Pression Humidité
    00:00 +14°C° 0 mm 1 m/s 684 mmHg 47%
    01:00 +14°C° 0 mm 1 m/s 684 mmHg 46%
    02:00 +13°C° 0 mm 1 m/s 683 mmHg 45%
    03:00 +13°C° 0 mm 2 m/s 683 mmHg 45%
    04:00 +13°C° 0 mm 2 m/s 683 mmHg 45%
    05:00 +13°C° 0 mm 2 m/s 683 mmHg 45%
    06:00 +13°C° 0 mm 2 m/s 683 mmHg 45%
    07:00 +15°C° 0 mm 1 m/s 684 mmHg 40%
    08:00 +18°C° 0 mm 1 m/s 684 mmHg 36%
    09:00 +18°C° 0 mm 0 m/s 685 mmHg 31%
    10:00 +21°C° 0 mm 1 m/s 685 mmHg 31%
    11:00 +22°C° 0 mm 1 m/s 684 mmHg 31%
    12:00 +23°C° 0 mm 2 m/s 684 mmHg 31%
    13:00 +23°C° 0 mm 2 m/s 684 mmHg 34%
    14:00 +21°C° 0 mm 2 m/s 684 mmHg 37%
    15:00 +21°C° 0 mm 2 m/s 683 mmHg 40%
    16:00 +19°C° 0 mm 2 m/s 683 mmHg 48%
    17:00 +18°C° 0 mm 1 m/s 683 mmHg 56%
    18:00 +16°C° 0 mm 1 m/s 683 mmHg 63%
    19:00 +15°C° 0 mm 1 m/s 683 mmHg 63%
    20:00 +15°C° 0 mm 1 m/s 683 mmHg 63%
    21:00 +15°C° 0 mm 1 m/s 683 mmHg 63%
    22:00 +15°C° 0 mm 1 m/s 682 mmHg 63%
    23:00 +15°C° 0 mm 1 m/s 682 mmHg 63%

    22 Octobre, Lundi

    Heure Température Précipitation Vent Pression Humidité
    00:00 +14°C° 0 mm 1 m/s 682 mmHg 63%
    01:00 +14°C° 0 mm 1 m/s 682 mmHg 63%
    02:00 +14°C° 0 mm 1 m/s 682 mmHg 63%
    03:00 +14°C° 0 mm 1 m/s 682 mmHg 63%
    04:00 +14°C° 0 mm 1 m/s 682 mmHg 63%
    05:00 +14°C° 0 mm 1 m/s 682 mmHg 63%
    06:00 +12°C° 0 mm 0 m/s 682 mmHg 63%
    07:00 +14°C° 0 mm 0 m/s 683 mmHg 60%
    08:00 +15°C° 0 mm 0 m/s 683 mmHg 56%
    09:00 +16°C° 0 mm 0 m/s 683 mmHg 53%
    10:00 +19°C° 0 mm 1 m/s 683 mmHg 51%
    11:00 +20°C° 0 mm 1 m/s 684 mmHg 50%
    12:00 +20°C° 0 mm 2 m/s 684 mmHg 49%
    13:00 +20°C° 0 mm 2 m/s 683 mmHg 51%
    14:00 +19°C° 0 mm 2 m/s 683 mmHg 53%
    15:00 +19°C° 0 mm 2 m/s 683 mmHg 55%
    16:00 +19°C° 0 mm 1 m/s 683 mmHg 63%
    17:00 +16°C° 0 mm 1 m/s 683 mmHg 71%
    18:00 +15°C° 0 mm 1 m/s 683 mmHg 79%
    19:00 +15°C° 0 mm 1 m/s 684 mmHg 79%
    20:00 +14°C° 0 mm 1 m/s 684 mmHg 78%
    21:00 +14°C° 0 mm 1 m/s 684 mmHg 77%
    22:00 +14°C° 0 mm 1 m/s 684 mmHg 76%
    23:00 +14°C° 0 mm 1 m/s 684 mmHg 75%

    23 Octobre, Mardi

    Heure Température Précipitation Vent Pression Humidité
    00:00 +14°C° 0 mm 1 m/s 684 mmHg 74%
    01:00 +13°C° 0 mm 1 m/s 684 mmHg 74%
    02:00 +13°C° 0 mm 1 m/s 684 mmHg 73%
    03:00 +13°C° 0 mm 1 m/s 684 mmHg 72%
    04:00 +13°C° 0 mm 1 m/s 684 mmHg 70%
    05:00 +13°C° 0 mm 2 m/s 684 mmHg 69%
    06:00 +13°C° 0 mm 2 m/s 684 mmHg 68%
    07:00 +15°C° 0 mm 2 m/s 684 mmHg 61%
    08:00 +17°C° 0 mm 2 m/s 685 mmHg 54%
    09:00 +20°C° 0 mm 1 m/s 685 mmHg 47%
    10:00 +20°C° 0 mm 2 m/s 685 mmHg 44%
    11:00 +21°C° 0 mm 2 m/s 685 mmHg 41%
    12:00 +22°C° 0 mm 3 m/s 685 mmHg 37%
    13:00 +22°C° 0 mm 3 m/s 684 mmHg 38%
    14:00 +22°C° 0 mm 3 m/s 684 mmHg 39%
    15:00 +22°C° 0 mm 3 m/s 684 mmHg 40%
    16:00 +20°C° 0 mm 3 m/s 683 mmHg 46%
    17:00 +18°C° 0 mm 2 m/s 683 mmHg 51%
    18:00 +17°C° 0 mm 2 m/s 683 mmHg 57%
    19:00 +16°C° 0 mm 2 m/s 683 mmHg 58%
    20:00 +16°C° 0 mm 2 m/s 683 mmHg 58%
    21:00 +16°C° 0 mm 3 m/s 682 mmHg 59%
    22:00 +16°C° 0 mm 3 m/s 682 mmHg 58%
    23:00 +16°C° 0 mm 3 m/s 682 mmHg 58%
    Voir plus